Fryeburg, ME

5:25 AM EST on February 21, 2017 (GMT -0500)
Eastern Slopes Regional

Weather History for KIZG - October, 2012

Change the Weather History Date:

Wednesday, October 10, 2012

  Actual Average Record
Temperature  
Mean Temperature 46 °F -  
Max Temperature 51 °F 60 °F 80 °F (1997)
Min Temperature 42 °F 34 °F 25 °F (2000)
Degree Days  
Heating Degree Days 18    
Moisture  
Dew Point 46 °F    
Average Humidity 94    
Maximum Humidity 100    
Minimum Humidity 71    
Precipitation  
Precipitation 0.58 in - - ()
Sea Level Pressure  
Sea Level Pressure 29.90 in    
Wind  
Wind Speed 1 mph (WNW)    
Max Wind Speed 12 mph    
Max Gust Speed 24 mph    
Visibility 6 miles    
Events Rain    
Averages and records for this station are not official NWS values.
T = Trace of Precipitation, MM = Missing Value Source: NWS Daily Summary

Daily Weather History Graph

Daily Weather History Graph

Search for Another Location

Airport or City:

Trip Planner

Search our weather history database for the weather conditions in past years. The results will help you decide how hot, cold, wet, or windy it might be!

Date:

Astronomy

Oct. 10, 2012 Rise Set
Actual Time 6:52 AM EDT 6:07 PM EDT
Civil Twilight 6:23 AM EDT 6:36 PM EDT
Nautical Twilight 5:50 AM EDT 7:10 PM EDT
Astronomical Twilight 5:16 AM EDT 7:43 PM EDT
Moon 1:15 AM EDT (10/10) 3:17 PM EDT (10/10)
Length of Visible Light 12h 12m
Length of Day
11h 15m
Waning Crescent, 27% of the Moon is Illuminated
Oct 10
Waning Crescent
Oct 15
New
Oct 21
First Quarter
Oct 29
Full
Nov 6
Last Quarter

Hourly Weather History & Observations

Time (EDT) Temp. Dew Point Humidity Pressure Visibility Wind Dir Wind Speed Gust Speed Precip Events Conditions
12:54 AM 46.0 °F 44.1 °F 93% 30.19 in 10.0 mi Calm Calm - N/A   Overcast
1:54 AM 46.0 °F 45.0 °F 96% 30.17 in 10.0 mi Calm Calm - N/A   Overcast
2:54 AM 42.1 °F 42.1 °F 100% 30.15 in 9.0 mi Calm Calm - N/A   Mostly Cloudy
3:54 AM 44.1 °F 43.0 °F 96% 30.14 in 10.0 mi Calm Calm - N/A   Overcast
4:54 AM 44.1 °F 43.0 °F 96% 30.12 in 10.0 mi Calm Calm - N/A   Overcast
5:13 AM 44.6 °F 42.8 °F 93% 30.11 in 10.0 mi Calm Calm - N/A   Overcast
5:29 AM 44.6 °F 42.8 °F 93% 30.11 in 10.0 mi Calm Calm - N/A   Overcast
5:39 AM 42.8 °F 42.8 °F 100% 30.11 in 10.0 mi Calm Calm - N/A   Overcast
5:54 AM 43.0 °F 42.1 °F 97% 30.12 in 10.0 mi Calm Calm - N/A   Overcast
6:12 AM 44.6 °F 42.8 °F 93% 30.11 in 5.0 mi Calm Calm - N/A   Overcast
6:54 AM 44.1 °F 43.0 °F 96% 30.12 in 10.0 mi Calm Calm - N/A   Overcast
7:39 AM 44.6 °F 44.6 °F 100% 30.10 in 10.0 mi Calm Calm - N/A   Overcast
7:54 AM 45.0 °F 44.1 °F 97% 30.10 in 10.0 mi Calm Calm - N/A   Overcast
8:08 AM 46.4 °F 44.6 °F 93% 30.08 in 10.0 mi Calm Calm - N/A   Overcast
8:17 AM 46.4 °F 44.6 °F 93% 30.08 in 10.0 mi Calm Calm - N/A   Overcast
8:46 AM 46.4 °F 44.6 °F 93% 30.08 in 10.0 mi Calm Calm - N/A   Overcast
8:54 AM 46.9 °F 45.0 °F 93% 30.08 in 10.0 mi Calm Calm - N/A   Overcast
9:54 AM 48.9 °F 44.1 °F 83% 30.07 in 10.0 mi Calm Calm - N/A   Overcast
10:54 AM 50.0 °F 43.0 °F 77% 30.04 in 10.0 mi Calm Calm - 0.00 in Rain Light Rain
11:54 AM 50.0 °F 44.1 °F 80% 30.01 in 10.0 mi Calm Calm - 0.00 in   Overcast
12:16 PM 50.0 °F 44.6 °F 82% 29.99 in 9.0 mi Calm Calm - N/A   Overcast
12:54 PM 50.0 °F 46.0 °F 86% 29.97 in 10.0 mi Calm Calm - 0.01 in   Overcast
1:24 PM 50.0 °F 46.4 °F 87% 29.93 in 5.0 mi NE 3.5 mph - 0.00 in Rain Light Rain
1:54 PM 50.0 °F 48.0 °F 93% 29.91 in 4.0 mi Calm Calm - 0.02 in Rain Light Rain
2:04 PM 50.0 °F 48.2 °F 94% 29.90 in 1.8 mi Calm Calm - 0.02 in Rain Rain
2:13 PM 50.0 °F 48.2 °F 94% 29.89 in 3.0 mi Calm Calm - 0.03 in Rain Light Rain
2:41 PM 50.0 °F 48.2 °F 94% 29.88 in 1.8 mi Calm Calm - 0.08 in Rain Rain
2:54 PM 50.0 °F 48.0 °F 93% 29.88 in 2.0 mi Calm Calm - 0.12 in Rain Light Rain
3:08 PM 50.0 °F 48.2 °F 94% 29.86 in 4.0 mi Calm Calm - 0.01 in Rain Light Rain
3:27 PM 50.0 °F 48.2 °F 94% 29.84 in 1.8 mi Calm Calm - 0.03 in Rain Rain
3:36 PM 50.0 °F 48.2 °F 94% 29.83 in 3.0 mi NNE 4.6 mph - 0.04 in Rain Light Rain
3:54 PM 50.0 °F 48.9 °F 96% 29.83 in 2.0 mi Variable 3.5 mph - 0.05 in Rain Light Rain
4:22 PM 50.0 °F 50.0 °F 100% 29.80 in 1.2 mi Calm Calm - 0.09 in Rain Heavy Rain
4:33 PM 50.0 °F 48.2 °F 94% 29.79 in 1.8 mi Calm Calm - 0.12 in Rain Rain
4:54 PM 50.0 °F 48.9 °F 96% 29.80 in 1.8 mi Calm Calm - 0.15 in Rain Light Rain
5:13 PM 50.0 °F 48.2 °F 94% 29.77 in 2.0 mi NNW 3.5 mph - 0.03 in Rain Light Rain
5:47 PM 50.0 °F 48.2 °F 94% 29.75 in 1.2 mi Calm Calm - 0.08 in Rain Rain
5:54 PM 50.0 °F 48.9 °F 96% 29.75 in 1.8 mi Calm Calm - 0.09 in Rain Light Rain
5:57 PM 50.0 °F 48.2 °F 94% 29.74 in 2.0 mi Calm Calm - 0.00 in Rain Light Rain
6:16 PM 50.0 °F 48.2 °F 94% 29.74 in 3.0 mi WNW 4.6 mph - 0.02 in Rain Light Rain
6:19 PM 48.2 °F 48.2 °F 100% 29.74 in 2.5 mi WNW 4.6 mph - 0.04 in Rain Light Rain
6:27 PM 50.0 °F 48.2 °F 94% 29.73 in 2.0 mi Calm Calm - 0.05 in Rain Light Rain
6:33 PM 48.2 °F 48.2 °F 100% 29.74 in 3.0 mi Calm Calm - 0.06 in Rain Light Rain
6:50 PM 50.0 °F 50.0 °F 100% 29.74 in 2.5 mi Calm Calm - 0.08 in Rain Light Rain
6:54 PM 50.0 °F 48.9 °F 96% 29.74 in 2.5 mi Calm Calm - 0.08 in Rain Light Rain
7:03 PM 50.0 °F 48.2 °F 94% 29.73 in 4.0 mi Calm Calm - 0.01 in Rain Light Rain
7:25 PM 50.0 °F 48.2 °F 94% 29.72 in 4.0 mi Calm Calm - 0.02 in Rain Light Rain
7:42 PM 50.0 °F 48.2 °F 94% 29.72 in 2.0 mi WSW 3.5 mph - 0.04 in Rain Rain
7:54 PM 50.0 °F 48.9 °F 96% 29.72 in 2.0 mi Calm Calm - 0.06 in Rain Light Rain
8:00 PM 50.0 °F 48.2 °F 94% 29.71 in 3.0 mi Calm Calm - 0.00 in Rain Light Rain
8:21 PM 50.0 °F 50.0 °F 100% 29.69 in 10.0 mi Calm Calm - 0.00 in   Overcast
8:54 PM 48.9 °F 48.0 °F 97% 29.68 in 10.0 mi Calm Calm - 0.00 in   Overcast
9:15 PM 48.2 °F 48.2 °F 100% 29.67 in 10.0 mi WSW 3.5 mph - N/A   Overcast
9:33 PM 50.0 °F 48.2 °F 94% 29.68 in 10.0 mi West 5.8 mph - N/A   Overcast
9:54 PM 50.0 °F 48.9 °F 96% 29.68 in 10.0 mi WSW 6.9 mph - N/A   Mostly Cloudy
10:54 PM 51.1 °F 46.9 °F 86% 29.71 in 10.0 mi NW 11.5 mph 24.2 mph 0.00 in   Mostly Cloudy
11:54 PM 48.9 °F 39.9 °F 71% 29.72 in 10.0 mi West 8.1 mph 18.4 mph N/A   Overcast